Time,TemperatureF,DewpointF,PressureIn,WindDirection,WindDirectionDegrees,WindSpeedMPH,WindSpeedGustMPH,Humidity,HourlyPrecipIn,Conditions,Clouds,dailyrainin,SolarRadiationWatts/m^2,SoftwareType,DateUTC
2013-07-11 00:07:00,62.3,59.0,30.11,NE,52,0.0,-999.0,89,-99.99,,,0.00,0,weatherlink.com 1.10,2013-07-11 05:07:00,
2013-07-11 00:22:00,62.4,59.0,30.11,NE,52,0.0,-999.0,89,-99.99,,,0.00,0,weatherlink.com 1.10,2013-07-11 05:22:00,
2013-07-11 00:37:00,62.4,59.0,30.11,NE,52,0.0,-999.0,89,-99.99,,,0.00,0,weatherlink.com 1.10,2013-07-11 05:37:00,
2013-07-11 00:52:00,62.1,59.0,30.11,NE,52,0.0,-999.0,90,-99.99,,,0.00,0,weatherlink.com 1.10,2013-07-11 05:52:00,
2013-07-11 01:08:00,61.6,59.0,30.11,NE,53,0.0,-999.0,91,-99.99,,,0.00,0,weatherlink.com 1.10,2013-07-11 06:08:00,
2013-07-11 01:23:00,61.1,59.0,30.11,NE,52,0.0,-999.0,91,-99.99,,,0.00,0,weatherlink.com 1.10,2013-07-11 06:23:00,
2013-07-11 01:38:00,60.7,58.0,30.12,NE,52,0.0,-999.0,91,-99.99,,,0.00,0,weatherlink.com 1.10,2013-07-11 06:38:00,
2013-07-11 01:53:00,60.5,58.0,30.12,NE,52,0.0,-999.0,92,-99.99,,,0.00,0,weatherlink.com 1.10,2013-07-11 06:53:00,
2013-07-11 02:08:00,60.1,58.0,30.12,NE,53,0.0,-999.0,93,-99.99,,,0.00,0,weatherlink.com 1.10,2013-07-11 07:08:00,
2013-07-11 02:23:00,59.9,58.0,30.12,NE,52,0.0,-999.0,93,-99.99,,,0.00,0,weatherlink.com 1.10,2013-07-11 07:23:00,
2013-07-11 02:38:00,59.8,58.0,30.12,NE,52,0.0,-999.0,93,-99.99,,,0.00,0,weatherlink.com 1.10,2013-07-11 07:38:00,
2013-07-11 02:53:00,59.6,58.0,30.12,NE,52,0.0,-999.0,94,-99.99,,,0.00,0,weatherlink.com 1.10,2013-07-11 07:53:00,
2013-07-11 03:08:00,59.1,57.0,30.12,NE,52,0.0,-999.0,94,-99.99,,,0.00,0,weatherlink.com 1.10,2013-07-11 08:08:00,
2013-07-11 03:23:00,58.9,57.0,30.12,NE,52,0.0,-999.0,94,-99.99,,,0.00,0,weatherlink.com 1.10,2013-07-11 08:23:00,
2013-07-11 03:38:00,58.6,57.0,30.12,NE,52,0.0,-999.0,94,-99.99,,,0.00,0,weatherlink.com 1.10,2013-07-11 08:38:00,
2013-07-11 03:53:00,58.4,57.0,30.12,NE,52,0.0,-999.0,94,-99.99,,,0.00,0,weatherlink.com 1.10,2013-07-11 08:53:00,
2013-07-11 04:09:00,57.8,56.0,30.12,NE,52,0.0,-999.0,94,-99.99,,,0.00,0,weatherlink.com 1.10,2013-07-11 09:09:00,
2013-07-11 04:23:00,57.3,56.0,30.13,NE,53,0.0,-999.0,94,-99.99,,,0.00,0,weatherlink.com 1.10,2013-07-11 09:23:00,
2013-07-11 04:39:00,57.8,56.0,30.13,NE,53,0.0,-999.0,95,-99.99,,,0.00,0,weatherlink.com 1.10,2013-07-11 09:39:00,
2013-07-11 04:54:00,57.6,56.0,30.13,NE,53,0.0,-999.0,95,-99.99,,,0.00,0,weatherlink.com 1.10,2013-07-11 09:54:00,
2013-07-11 05:09:00,57.6,56.0,30.14,NE,53,0.0,-999.0,95,-99.99,,,0.00,0,weatherlink.com 1.10,2013-07-11 10:09:00,
2013-07-11 05:23:00,57.3,56.0,30.14,NE,53,0.0,-999.0,95,-99.99,,,0.00,0,weatherlink.com 1.10,2013-07-11 10:23:00,
2013-07-11 05:40:00,57.0,56.0,30.14,NE,53,0.0,-999.0,95,-99.99,,,0.00,0,weatherlink.com 1.10,2013-07-11 10:40:00,
2013-07-11 05:55:00,57.5,56.0,30.14,NE,53,0.0,-999.0,95,-99.99,,,0.00,9,weatherlink.com 1.10,2013-07-11 10:55:00,
2013-07-11 06:10:00,57.8,57.0,30.15,NE,53,0.0,-999.0,96,-99.99,,,0.00,16,weatherlink.com 1.10,2013-07-11 11:10:00,
2013-07-11 06:25:00,57.6,56.0,30.15,NE,53,0.0,-999.0,95,-99.99,,,0.00,25,weatherlink.com 1.10,2013-07-11 11:25:00,
2013-07-11 06:40:00,57.3,56.0,30.15,NE,53,0.0,-999.0,96,-99.99,,,0.00,33,weatherlink.com 1.10,2013-07-11 11:40:00,
2013-07-11 06:55:00,58.6,58.0,30.15,NE,53,0.0,-999.0,96,-99.99,,,0.00,42,weatherlink.com 1.10,2013-07-11 11:55:00,
2013-07-11 07:10:00,59.1,58.0,30.16,NE,53,0.0,-999.0,96,-99.99,,,0.00,51,weatherlink.com 1.10,2013-07-11 12:10:00,
2013-07-11 07:25:00,59.7,59.0,30.15,NE,53,0.0,-999.0,96,-99.99,,,0.00,56,weatherlink.com 1.10,2013-07-11 12:25:00,
2013-07-11 07:40:00,61.2,60.0,30.15,NE,53,0.0,-999.0,97,-99.99,,,0.00,65,weatherlink.com 1.10,2013-07-11 12:40:00,
2013-07-11 08:10:00,63.4,63.0,30.15,SSE,148,0.0,-999.0,97,-99.99,,,0.00,274,weatherlink.com 1.10,2013-07-11 13:10:00,
2013-07-11 08:26:00,65.5,64.0,30.14,SSE,152,1.0,-999.0,95,-99.99,,,0.00,325,weatherlink.com 1.10,2013-07-11 13:26:00,
2013-07-11 08:41:00,67.9,65.0,30.14,SSW,192,0.0,-999.0,91,-99.99,,,0.00,374,weatherlink.com 1.10,2013-07-11 13:41:00,
2013-07-11 08:56:00,69.7,64.0,30.14,SSW,200,4.0,-999.0,83,-99.99,,,0.00,418,weatherlink.com 1.10,2013-07-11 13:56:00,
2013-07-11 09:11:00,71.2,64.0,30.14,SSW,194,2.0,-999.0,77,-99.99,,,0.00,466,weatherlink.com 1.10,2013-07-11 14:11:00,
2013-07-11 09:26:00,72.7,64.0,30.14,SSW,203,2.0,-999.0,74,-99.99,,,0.00,508,weatherlink.com 1.10,2013-07-11 14:26:00,
2013-07-11 09:56:00,74.2,62.0,30.14,South,180,1.0,-999.0,66,-99.99,,,0.00,585,weatherlink.com 1.10,2013-07-11 14:56:00,
2013-07-11 10:11:00,74.7,61.0,30.14,SSE,164,4.0,-999.0,63,-99.99,,,0.00,624,weatherlink.com 1.10,2013-07-11 15:11:00,
2013-07-11 10:27:00,75.2,62.0,30.14,SSW,201,2.0,-999.0,64,-99.99,,,0.00,657,weatherlink.com 1.10,2013-07-11 15:27:00,
2013-07-11 10:42:00,75.5,61.0,30.13,SSE,148,2.0,-999.0,62,-99.99,,,0.00,694,weatherlink.com 1.10,2013-07-11 15:42:00,
2013-07-11 10:57:00,76.2,61.0,30.13,SSW,192,5.0,-999.0,59,-99.99,,,0.00,729,weatherlink.com 1.10,2013-07-11 15:57:00,
2013-07-11 11:12:00,76.6,62.0,30.12,South,185,4.0,-999.0,61,-99.99,,,0.00,765,weatherlink.com 1.10,2013-07-11 16:12:00,
2013-07-11 11:27:00,76.8,62.0,30.12,SSE,160,1.0,-999.0,60,-99.99,,,0.00,784,weatherlink.com 1.10,2013-07-11 16:27:00,
2013-07-11 11:42:00,77.3,62.0,30.12,SSW,202,1.0,-999.0,59,-99.99,,,0.00,803,weatherlink.com 1.10,2013-07-11 16:42:00,
2013-07-11 11:58:00,77.3,62.0,30.11,SSE,167,6.0,-999.0,59,-99.99,,,0.00,819,weatherlink.com 1.10,2013-07-11 16:58:00,
2013-07-11 12:27:00,78.1,62.0,30.11,SW,229,1.0,-999.0,57,-99.99,,,0.00,844,weatherlink.com 1.10,2013-07-11 17:27:00,
2013-07-11 12:43:00,78.2,62.0,30.11,South,191,3.0,-999.0,57,-99.99,,,0.00,853,weatherlink.com 1.10,2013-07-11 17:43:00,
2013-07-11 12:58:00,78.5,60.0,30.11,SSE,167,2.0,-999.0,53,-99.99,,,0.00,861,weatherlink.com 1.10,2013-07-11 17:58:00,
2013-07-11 13:13:00,78.9,63.0,30.10,South,169,7.0,-999.0,59,-99.99,,,0.00,877,weatherlink.com 1.10,2013-07-11 18:13:00,
2013-07-11 13:28:00,79.3,61.0,30.09,SW,215,6.0,-999.0,53,-99.99,,,0.00,881,weatherlink.com 1.10,2013-07-11 18:28:00,
2013-07-11 13:43:00,79.6,61.0,30.09,SSW,207,5.0,-999.0,54,-99.99,,,0.00,877,weatherlink.com 1.10,2013-07-11 18:43:00,
2013-07-11 13:58:00,79.7,62.0,30.09,SSW,192,0.0,-999.0,54,-99.99,,,0.00,861,weatherlink.com 1.10,2013-07-11 18:58:00,
2013-07-11 14:14:00,80.1,61.0,30.08,SSW,196,4.0,-999.0,52,-99.99,,,0.00,865,weatherlink.com 1.10,2013-07-11 19:14:00,
2013-07-11 14:29:00,80.4,61.0,30.08,SSW,192,1.0,-999.0,52,-99.99,,,0.00,847,weatherlink.com 1.10,2013-07-11 19:29:00,
2013-07-11 14:44:00,80.8,61.0,30.07,SSE,147,1.0,-999.0,52,-99.99,,,0.00,826,weatherlink.com 1.10,2013-07-11 19:44:00,
2013-07-11 14:59:00,81.4,63.0,30.07,South,184,3.0,-999.0,53,-99.99,,,0.00,810,weatherlink.com 1.10,2013-07-11 19:59:00,
2013-07-11 15:14:00,81.5,62.0,30.07,NW,304,2.0,-999.0,52,-99.99,,,0.00,791,weatherlink.com 1.10,2013-07-11 20:14:00,
2013-07-11 15:29:00,81.2,60.0,30.07,SE,139,6.0,-999.0,49,-99.99,,,0.00,751,weatherlink.com 1.10,2013-07-11 20:29:00,
2013-07-11 15:44:00,81.3,63.0,30.06,SSW,209,7.0,-999.0,54,-99.99,,,0.00,735,weatherlink.com 1.10,2013-07-11 20:44:00,
2013-07-11 15:59:00,81.7,61.0,30.06,South,184,1.0,-999.0,49,-99.99,,,0.00,712,weatherlink.com 1.10,2013-07-11 20:59:00,
2013-07-11 16:14:00,81.9,60.0,30.05,SSW,200,2.0,-999.0,48,-99.99,,,0.00,677,weatherlink.com 1.10,2013-07-11 21:14:00,
2013-07-11 16:29:00,82.4,62.0,30.05,SSW,204,4.0,-999.0,50,-99.99,,,0.00,635,weatherlink.com 1.10,2013-07-11 21:29:00,
2013-07-11 16:44:00,82.0,61.0,30.05,SSW,196,4.0,-999.0,49,-99.99,,,0.00,606,weatherlink.com 1.10,2013-07-11 21:44:00,
2013-07-11 17:00:00,82.2,62.0,30.05,SSW,204,7.0,-999.0,50,-99.99,,,0.00,566,weatherlink.com 1.10,2013-07-11 22:00:00,
2013-07-11 17:15:00,82.1,62.0,30.04,SSW,205,4.0,-999.0,50,-99.99,,,0.00,526,weatherlink.com 1.10,2013-07-11 22:15:00,
2013-07-11 17:29:00,82.2,61.0,30.04,SSE,165,9.0,-999.0,49,-99.99,,,0.00,492,weatherlink.com 1.10,2013-07-11 22:29:00,
2013-07-11 17:44:00,82.2,61.0,30.04,SSW,205,2.0,-999.0,49,-99.99,,,0.00,448,weatherlink.com 1.10,2013-07-11 22:44:00,
2013-07-11 18:00:00,82.1,62.0,30.03,SSW,201,2.0,-999.0,50,-99.99,,,0.00,403,weatherlink.com 1.10,2013-07-11 23:00:00,
2013-07-11 18:15:00,81.9,61.0,30.03,SSW,198,13.0,-999.0,50,-99.99,,,0.00,362,weatherlink.com 1.10,2013-07-11 23:15:00,
2013-07-11 18:30:00,82.0,63.0,30.03,SSW,194,2.0,-999.0,52,-99.99,,,0.00,320,weatherlink.com 1.10,2013-07-11 23:30:00,
2013-07-11 18:45:00,81.5,62.0,30.02,South,180,3.0,-999.0,51,-99.99,,,0.00,260,weatherlink.com 1.10,2013-07-11 23:45:00,
2013-07-11 19:16:00,81.1,63.0,30.01,ENE,65,1.0,-999.0,54,-99.99,,,0.00,190,weatherlink.com 1.10,2013-07-12 00:16:00,
2013-07-11 19:30:00,80.6,63.0,30.01,SSE,152,1.0,-999.0,56,-99.99,,,0.00,151,weatherlink.com 1.10,2013-07-12 00:30:00,
2013-07-11 19:46:00,80.0,63.0,30.00,SSW,196,4.0,-999.0,57,-99.99,,,0.00,107,weatherlink.com 1.10,2013-07-12 00:46:00,
2013-07-11 20:00:00,79.3,64.0,30.00,South,188,1.0,-999.0,59,-99.99,,,0.00,47,weatherlink.com 1.10,2013-07-12 01:00:00,
2013-07-11 20:16:00,77.9,62.0,30.00,WNW,302,0.0,-999.0,59,-99.99,,,0.00,26,weatherlink.com 1.10,2013-07-12 01:16:00,
2013-07-11 20:30:00,76.6,63.0,30.00,East,84,0.0,-999.0,62,-99.99,,,0.00,16,weatherlink.com 1.10,2013-07-12 01:30:00,
2013-07-11 21:01:00,74.2,63.0,30.00,West,265,0.0,-999.0,69,-99.99,,,0.00,0,weatherlink.com 1.10,2013-07-12 02:01:00,
2013-07-11 21:16:00,73.1,63.0,30.00,West,265,0.0,-999.0,71,-99.99,,,0.00,0,weatherlink.com 1.10,2013-07-12 02:16:00,
2013-07-11 21:31:00,72.6,63.0,30.00,ENE,61,0.0,-999.0,73,-99.99,,,0.00,0,weatherlink.com 1.10,2013-07-12 02:31:00,
2013-07-11 21:46:00,72.0,63.0,30.01,ENE,63,0.0,-999.0,73,-99.99,,,0.00,0,weatherlink.com 1.10,2013-07-12 02:46:00,
2013-07-11 22:01:00,71.8,63.0,30.01,SE,141,0.0,-999.0,74,-99.99,,,0.00,0,weatherlink.com 1.10,2013-07-12 03:01:00,
2013-07-11 22:32:00,71.4,62.0,30.01,SE,143,0.0,-999.0,73,-99.99,,,0.00,0,weatherlink.com 1.10,2013-07-12 03:32:00,
2013-07-11 22:47:00,72.0,62.0,30.01,South,190,1.0,-999.0,70,-99.99,,,0.00,0,weatherlink.com 1.10,2013-07-12 03:47:00,
2013-07-11 23:01:00,72.3,61.0,30.01,SW,230,0.0,-999.0,68,-99.99,,,0.00,0,weatherlink.com 1.10,2013-07-12 04:01:00,
2013-07-11 23:17:00,72.2,61.0,30.01,SSW,200,2.0,-999.0,67,-99.99,,,0.00,0,weatherlink.com 1.10,2013-07-12 04:17:00,
2013-07-11 23:32:00,71.9,60.0,30.01,South,190,1.0,-999.0,67,-99.99,,,0.00,0,weatherlink.com 1.10,2013-07-12 04:32:00,
2013-07-11 23:47:00,71.8,60.0,30.01,SSW,208,1.0,-999.0,67,-99.99,,,0.00,0,weatherlink.com 1.10,2013-07-12 04:47:00,